Date,TemperatureHighF,TemperatureAvgF,TemperatureLowF,DewpointHighF,DewpointAvgF,DewpointLowF,HumidityHigh,HumidityAvg,HumidityLow,PressureMaxIn,PressureMinIn,WindSpeedMaxMPH,WindSpeedAvgMPH,GustSpeedMaxMPH,PrecipitationSumIn
2013-1-1,11.7,-7.9,-16.6,3.0,-13.2,-22.0,82,78,66,30.91,30.29,3,0,5,0.00
2013-1-2,19.0,-6.5,-21.0,4.0,-13.5,-26.0,85,73,48,31.01,30.80,6,0,9,0.00
2013-1-3,14.8,-9.0,-24.3,-1.0,-16.1,-30.0,81,72,48,31.14,30.97,5,0,6,0.00
2013-1-4,21.6,-3.4,-15.9,6.0,-10.2,-21.0,84,74,46,31.11,30.78,4,0,7,0.00
2013-1-5,26.1,0.6,-15.4,7.0,-6.8,-20.0,84,73,43,31.06,30.89,2,0,5,0.00
2013-1-6,40.9,9.9,-9.0,17.0,1.9,-14.0,85,73,31,31.05,30.56,5,0,5,0.05
2013-1-7,35.5,9.9,-2.5,13.0,1.8,-7.0,86,72,38,30.56,30.28,5,0,6,0.00
2013-1-8,27.8,6.1,-7.4,10.0,-2.1,-12.0,86,72,38,30.93,30.46,7,0,9,0.00
2013-1-9,37.0,10.2,-6.3,17.0,2.8,-10.0,86,74,41,31.00,30.63,3,0,5,0.02
2013-1-10,38.3,16.4,-0.2,18.0,7.0,-4.0,85,70,23,30.62,29.84,2,0,7,0.00
2013-1-11,20.7,10.7,-3.1,17.0,3.9,-8.0,87,75,47,30.05,29.48,16,3,25,0.00
2013-1-12,9.2,-8.8,-24.5,-3.0,-16.3,-30.0,83,71,47,30.56,30.05,7,0,11,0.00
2013-1-13,9.8,-7.8,-23.2,-3.0,-14.9,-29.0,81,72,40,30.69,30.52,4,0,12,0.00
2013-1-14,12.4,-7.4,-19.6,-2.0,-15.0,-25.0,81,71,44,30.76,30.46,5,0,9,0.00
2013-1-15,8.8,-12.4,-30.3,-3.0,-19.5,-36.0,81,71,54,31.28,30.77,6,0,10,0.00
2013-1-16,24.3,1.4,-14.5,12.0,-5.0,-19.0,86,75,58,31.31,31.01,6,0,8,0.00
2013-1-17,31.6,8.4,-6.7,17.0,1.9,-11.0,88,76,52,31.09,30.86,4,0,6,0.05
2013-1-18,30.3,6.5,-8.9,14.0,-0.4,-13.0,88,75,50,30.93,30.73,5,0,8,0.00
2013-1-19,36.4,8.8,-8.6,12.0,-1.0,-13.0,85,68,29,31.03,30.83,6,0,7,0.00
2013-1-20,33.3,7.3,-10.3,9.0,-2.7,-15.0,84,68,29,30.93,30.71,6,0,9,0.00
2013-1-21,36.8,10.2,-7.6,10.0,-0.8,-12.0,84,66,28,30.91,30.71,5,1,12,0.00
2013-1-22,39.3,8.6,-6.7,9.0,-1.7,-11.0,84,67,21,30.92,30.73,4,0,7,0.00
2013-1-23,35.8,12.4,-7.9,12.0,0.6,-12.0,82,64,28,30.99,30.79,4,0,6,0.00
2013-1-24,40.6,22.2,2.2,24.0,13.3,-2.0,84,71,36,30.82,30.50,3,0,11,0.01
2013-1-25,37.1,30.1,24.6,30.0,26.5,22.0,92,86,75,30.50,30.20,2,0,6,0.00
2013-1-26,37.5,30.8,24.6,32.0,28.5,23.0,96,91,73,30.23,29.80,1,0,3,0.03
2013-1-27,38.9,30.7,19.2,31.0,26.8,17.0,95,86,68,29.87,29.78,5,0,10,0.19
2013-1-28,28.7,22.5,12.5,26.0,20.1,10.0,94,90,81,29.84,29.67,0,0,1,0.00
2013-1-29,17.5,7.3,-15.4,13.0,0.9,-20.0,91,76,46,30.30,29.76,4,0,7,0.00
2013-1-30,15.6,1.9,-18.8,11.0,-2.8,-24.0,87,81,69,30.72,30.31,5,0,10,0.00
2013-1-31,29.3,13.7,-0.3,19.0,8.7,-4.0,89,81,61,30.71,30.54,5,1,13,0.00
2013-2-1,33.3,14.8,-2.9,18.0,7.9,-6.0,89,76,52,30.70,30.51,7,1,16,0.02
2013-2-2,30.1,10.1,-8.6,15.0,3.1,-13.0,87,75,50,30.86,30.69,4,1,7,0.00
2013-2-3,28.1,10.9,-3.5,13.0,3.9,-7.0,87,75,46,30.84,30.44,3,0,6,0.00
2013-2-4,36.0,9.8,-9.6,16.0,1.9,-14.0,87,73,32,30.63,30.43,7,1,11,0.00
2013-2-5,37.6,12.5,-6.2,17.0,4.6,-10.0,87,73,43,30.67,30.40,7,1,8,0.04
2013-2-6,37.8,18.0,-0.9,20.0,10.6,-5.0,93,75,44,30.44,30.17,8,1,11,0.02
2013-2-7,34.6,15.9,-1.4,19.0,7.0,-5.0,90,70,26,30.44,30.28,6,1,9,0.01
2013-2-8,39.6,20.0,-2.0,20.0,8.8,-7.0,86,65,35,30.44,29.93,5,0,15,0.02
2013-2-9,26.2,17.1,8.8,18.0,11.6,5.0,89,79,56,29.93,29.55,8,0,12,0.00
2013-2-10,25.4,10.5,-7.5,10.0,2.0,-12.0,85,71,35,30.21,29.81,6,1,11,0.00
2013-2-11,21.5,8.3,-8.2,10.0,1.3,-13.0,85,74,45,30.40,30.13,8,0,13,0.00
2013-2-12,18.1,-1.2,-19.3,5.0,-8.6,-24.0,83,72,51,30.80,30.41,8,1,15,0.00
2013-2-13,27.5,6.7,-12.3,13.0,-1.2,-17.0,86,72,49,30.84,30.57,10,1,16,0.00
2013-2-14,27.3,10.6,-3.0,17.0,4.5,-7.0,87,77,60,30.67,30.49,7,1,12,0.00
2013-2-15,27.0,7.8,-7.6,10.0,-1.3,-12.0,86,69,39,30.90,30.65,8,1,19,0.00
2013-2-16,35.2,10.4,-10.9,11.0,-0.5,-15.0,84,66,35,30.95,30.64,8,1,13,0.00
2013-2-17,39.4,15.3,-6.1,17.0,0.8,-10.0,85,60,18,30.63,30.03,5,0,12,0.00
2013-2-18,24.0,12.0,-7.7,16.0,2.5,-13.0,89,68,40,30.46,29.99,12,1,16,0.00
2013-2-19,36.1,11.0,-12.6,8.0,-4.2,-18.0,82,57,19,30.60,30.15,4,0,6,0.01
2013-2-20,32.7,18.5,5.0,21.0,9.6,-2.0,88,71,37,30.15,29.62,6,0,11,0.00
2013-2-21,24.7,17.2,2.2,19.0,13.4,-2.0,89,85,78,30.03,29.67,5,0,9,0.00
2013-2-22,25.4,9.2,-7.9,14.0,3.2,-12.0,87,77,59,30.37,30.04,4,0,8,0.00
2013-2-23,23.1,8.6,-12.9,18.0,3.8,-18.0,89,81,61,30.39,30.03,2,0,5,0.00
2013-2-24,17.7,8.8,-5.8,11.0,3.7,-10.0,89,80,67,30.36,29.98,1,0,5,0.00
2013-2-25,24.2,5.4,-14.6,8.0,-2.5,-20.0,84,72,46,30.62,30.38,5,1,12,0.00
2013-2-26,19.5,5.0,-8.6,13.0,0.1,-13.0,87,80,68,30.63,30.21,3,0,11,0.00
2013-2-27,24.0,0.9,-19.6,8.0,-7.5,-25.0,82,70,43,30.89,30.64,8,1,12,0.00
2013-2-28,27.3,4.9,-19.6,8.0,-4.5,-25.0,81,68,43,31.01,30.81,5,1,14,0.00
2013-3-1,36.8,17.5,-3.0,21.0,10.3,-7.0,89,75,50,30.87,30.65,7,1,12,0.08
2013-3-2,42.9,22.5,2.4,21.0,12.9,-1.0,89,70,38,30.77,30.46,14,1,14,0.11
2013-3-3,40.7,25.1,6.6,26.0,17.0,4.0,91,74,41,30.45,29.94,9,1,18,0.01
2013-3-4,35.5,23.9,-2.4,28.0,19.8,-6.0,92,84,61,30.31,29.74,10,1,20,0.10
2013-3-5,40.4,11.5,-14.8,16.0,0.6,-19.0,85,66,23,30.75,30.32,6,1,11,0.08
2013-3-6,47.7,22.3,0.2,19.0,8.9,-4.0,87,62,24,30.67,30.19,7,1,11,0.00
2013-3-7,48.9,27.4,9.6,17.0,9.3,3.0,85,55,15,30.28,30.03,6,1,13,0.00
2013-3-8,46.8,29.2,14.9,26.0,17.4,9.0,92,65,29,30.13,29.68,7,1,16,0.00
2013-3-9,26.4,21.7,5.6,24.0,18.9,2.0,93,88,83,30.09,29.57,4,0,10,0.00
2013-3-10,31.3,12.5,-8.6,18.0,5.3,-12.0,87,74,55,30.61,30.11,6,1,14,0.06
2013-3-11,37.5,17.6,-5.8,19.0,7.7,-10.0,86,68,42,30.62,30.38,8,1,17,0.13
2013-3-12,40.8,27.9,13.5,24.0,19.0,11.0,89,72,47,30.43,30.28,7,1,14,0.07
2013-3-13,45.5,27.8,10.4,26.0,17.5,8.0,91,69,40,30.56,30.42,8,1,14,0.00
2013-3-14,51.4,30.9,13.1,24.0,16.8,10.0,88,62,25,30.61,30.39,8,1,13,0.00
2013-3-15,52.9,34.1,16.5,27.0,18.7,13.0,88,60,25,30.45,30.05,8,1,14,0.00
2013-3-16,38.1,28.3,18.2,31.0,24.2,15.0,93,85,60,30.08,29.89,5,0,8,0.03
2013-3-17,37.3,25.9,11.3,29.0,17.9,6.0,92,74,42,29.98,29.75,12,2,21,0.06
2013-3-18,32.7,25.5,19.4,16.0,9.1,3.0,81,51,36,30.11,29.96,13,2,20,0.00
2013-3-19,39.8,26.6,13.9,13.0,3.0,-8.0,77,42,14,30.37,30.10,9,2,16,0.00
2013-3-20,40.5,23.4,3.3,27.0,10.4,-6.0,91,61,26,30.44,30.09,7,1,15,0.00
2013-3-21,34.7,26.6,8.7,29.0,22.3,6.0,94,84,58,30.07,29.64,10,1,21,0.04
2013-3-22,36.3,18.7,-3.0,15.0,5.7,-7.0,88,62,27,30.09,29.84,9,1,19,0.08
2013-3-23,19.7,12.3,-4.9,11.0,3.7,-10.0,83,69,44,30.33,29.81,5,1,12,0.00
2013-3-24,19.5,3.2,-14.8,5.0,-5.7,-20.0,84,68,41,30.65,30.33,14,1,18,0.00
2013-3-25,29.4,6.2,-17.5,5.0,-7.3,-22.0,81,59,28,30.75,30.61,9,1,13,0.00
2013-3-26,44.9,24.8,1.1,18.0,8.8,-5.0,76,54,28,30.69,30.18,8,2,20,0.00
2013-3-27,48.2,34.3,21.6,22.0,17.0,11.0,77,54,23,30.17,29.98,9,2,19,0.00
2013-3-28,49.3,31.2,15.7,26.0,16.7,11.0,81,60,25,30.21,30.10,10,1,13,0.00
2013-3-29,49.3,34.3,20.0,25.0,20.1,15.0,83,61,29,30.26,30.12,11,1,19,0.00
2013-3-30,49.6,34.9,20.1,27.0,21.2,17.0,89,62,29,30.24,30.08,10,2,18,0.00
2013-3-31,50.5,33.4,16.3,25.0,18.9,13.0,87,60,27,30.21,30.04,9,1,15,0.00
2013-4-1,52.5,37.3,22.9,27.0,21.6,17.0,84,57,25,30.12,29.82,8,1,13,0.00
2013-4-2,49.0,32.8,22.1,28.0,20.1,10.0,92,65,21,29.99,29.77,9,1,12,0.00
2013-4-3,47.7,30.6,17.4,31.0,20.5,13.0,92,71,29,30.26,29.98,10,1,17,0.26
2013-4-4,51.9,34.0,16.4,26.0,19.4,14.0,90,61,27,30.33,30.14,9,1,14,0.00
2013-4-5,51.3,36.5,21.9,32.0,23.2,16.0,93,64,26,30.17,29.81,11,2,23,0.00
2013-4-6,48.3,36.2,22.0,32.0,23.0,12.0,95,65,23,29.97,29.86,9,2,18,0.04
2013-4-7,45.8,35.5,26.9,29.0,25.5,21.0,94,70,39,29.88,29.73,12,2,21,0.00
2013-4-8,51.9,35.5,24.6,32.0,24.7,14.0,94,72,24,29.78,29.37,12,1,18,0.02
2013-4-9,34.1,27.7,16.6,29.0,20.5,13.0,94,76,49,29.85,29.33,5,0,12,0.00
2013-4-10,28.3,17.7,9.4,20.0,12.4,6.0,89,80,65,30.20,29.85,7,1,12,0.00
2013-4-11,41.8,26.8,9.8,25.0,17.2,7.0,89,70,37,30.22,29.99,15,2,22,0.21
2013-4-12,44.5,30.9,19.7,29.0,19.5,10.0,89,66,25,30.04,29.92,10,1,19,0.00
2013-4-13,49.3,36.2,15.9,31.0,18.0,11.0,89,52,23,30.02,29.52,15,3,28,0.00
2013-4-14,36.7,30.0,24.8,32.0,23.1,17.0,94,77,47,29.71,29.43,6,1,19,0.10
2013-4-15,44.8,34.0,24.5,33.0,27.2,22.0,94,78,52,29.72,29.58,7,1,15,0.26
2013-4-16,51.3,39.2,26.4,25.0,18.4,9.0,91,49,21,29.70,29.50,14,3,28,0.00
2013-4-17,37.7,27.7,14.6,26.0,18.5,11.0,87,70,39,29.91,29.45,15,1,21,0.01
2013-4-18,24.5,14.6,3.7,11.0,3.6,-2.0,85,64,38,30.57,29.92,12,1,17,0.00
2013-4-19,40.8,20.8,-0.8,18.0,8.5,-5.0,85,62,36,30.67,30.28,15,2,19,0.07
2013-4-20,43.3,32.2,24.5,28.0,22.6,16.0,91,70,41,30.27,29.92,9,1,15,0.00
2013-4-21,47.7,33.7,18.1,27.0,20.7,9.0,93,64,24,30.18,30.02,9,1,16,0.09
2013-4-22,49.5,37.5,30.2,31.0,24.9,16.0,92,65,28,30.05,29.77,12,2,25,0.02
2013-4-23,35.9,28.1,15.1,26.0,15.8,1.0,88,63,31,30.19,29.74,11,2,23,0.05
2013-4-24,41.2,26.6,11.6,13.0,7.8,1.0,66,48,26,30.36,30.20,11,1,16,0.00
2013-4-25,55.3,35.7,20.0,25.0,16.1,9.0,79,50,20,30.34,29.95,11,1,19,0.00
2013-4-26,53.9,36.8,20.8,23.0,16.5,6.0,88,53,16,30.27,30.04,15,1,17,0.00
2013-4-27,56.4,38.6,21.1,24.0,17.3,5.0,87,52,13,30.30,30.11,7,1,17,0.00
2013-4-28,61.5,40.7,20.9,26.0,18.9,13.0,84,50,16,30.17,29.91,8,1,23,0.00
2013-4-29,61.9,43.2,25.5,27.0,21.1,13.0,85,50,16,29.97,29.69,14,2,23,0.00
2013-4-30,62.0,45.4,27.1,28.0,20.2,12.0,83,45,16,29.73,29.58,13,2,24,0.00
2013-5-1,47.4,35.5,23.1,32.0,22.5,7.0,91,62,26,30.27,29.59,12,2,22,0.02
2013-5-2,42.8,28.2,11.8,13.0,6.1,-7.0,85,46,16,30.57,30.28,8,1,19,0.00
2013-5-3,55.6,34.8,14.0,22.0,11.7,6.0,80,46,14,30.55,30.04,9,1,16,0.00
2013-5-4,54.3,37.7,22.1,29.0,18.6,9.0,78,52,18,30.08,29.90,5,0,18,0.00
2013-5-5,52.7,38.7,26.6,30.0,23.3,16.0,83,59,24,30.07,29.96,7,1,13,0.00
2013-5-6,47.5,37.2,29.9,38.0,31.2,27.0,95,80,53,30.04,29.85,4,0,13,0.11
2013-5-7,51.1,36.7,28.4,37.0,31.9,27.0,96,84,43,30.00,29.92,3,0,8,0.47
2013-5-8,45.8,33.5,28.7,32.0,30.1,27.0,96,88,52,30.08,29.93,6,0,8,0.31
2013-5-9,46.2,35.1,27.5,36.0,29.9,26.0,95,83,56,30.20,30.03,2,0,8,0.77
2013-5-10,52.1,36.3,22.0,31.0,25.6,20.0,94,70,35,30.36,30.19,5,0,12,0.01
2013-5-11,56.8,38.8,23.7,32.0,25.5,20.0,95,65,27,30.43,30.24,9,0,12,0.00
2013-5-12,60.9,43.9,30.1,34.0,29.2,23.0,95,62,25,30.34,30.13,7,1,15,0.01
2013-5-13,66.1,45.4,28.4,40.0,31.6,25.0,91,64,23,30.26,30.09,6,1,13,0.00
2013-5-14,65.7,44.4,29.6,45.0,35.1,28.0,95,76,28,30.13,29.89,8,1,15,0.17
2013-5-15,62.4,42.6,32.7,45.0,36.2,32.0,97,82,36,29.99,29.82,8,1,11,0.09
2013-5-16,63.9,46.8,30.2,41.0,31.0,24.0,97,62,22,29.94,29.78,8,1,17,0.01
2013-5-17,67.6,47.8,28.8,34.0,22.5,10.0,87,48,11,29.91,29.70,14,2,16,0.00
2013-5-18,58.6,40.2,28.3,35.0,26.8,21.0,96,64,27,29.85,29.69,9,1,14,0.05
2013-5-19,45.6,35.6,28.2,34.0,30.2,24.0,96,82,45,29.96,29.80,8,1,20,0.02
2013-5-20,47.5,34.3,23.5,36.0,29.4,22.0,95,83,53,30.10,29.94,7,1,15,0.03
2013-5-21,55.3,39.3,24.4,32.0,25.9,22.0,94,65,28,30.13,29.92,12,2,19,0.00
2013-5-22,65.5,46.8,27.3,32.0,26.6,20.0,89,53,20,29.95,29.74,6,1,16,0.00
2013-5-23,68.1,50.0,29.4,34.0,22.8,13.0,88,44,12,29.89,29.73,12,2,20,0.00
2013-5-24,68.3,49.2,28.6,27.0,19.8,10.0,76,39,11,29.91,29.79,13,2,20,0.00
2013-5-25,69.4,49.3,28.0,29.0,18.6,5.0,77,39,9,29.97,29.78,9,1,15,0.00
2013-5-26,69.6,49.9,29.2,29.0,20.8,10.0,78,40,11,29.92,29.71,9,2,17,0.00
2013-5-27,64.5,46.8,27.4,25.0,19.0,13.0,72,40,14,29.85,29.65,14,2,19,0.00
2013-5-28,62.8,45.9,27.1,26.0,20.2,10.0,74,42,14,29.78,29.51,7,1,18,0.00
2013-5-29,48.5,38.1,29.1,35.0,28.8,23.0,94,71,43,29.77,29.52,9,1,22,0.14
2013-5-30,54.5,40.7,24.7,26.0,20.4,15.0,93,52,22,29.90,29.77,18,4,39,0.00
2013-5-31,55.2,44.2,28.3,25.0,16.5,6.0,59,36,15,30.01,29.82,19,3,25,0.00
2013-6-1,61.7,42.5,22.2,27.0,18.8,14.0,80,45,17,30.18,30.02,10,2,15,0.00
2013-6-2,69.9,49.0,26.7,27.0,20.7,13.0,78,41,13,30.16,29.81,14,2,18,0.00
2013-6-3,69.0,50.3,31.5,32.0,26.6,21.0,80,46,17,29.85,29.68,13,2,28,0.00
2013-6-4,69.6,50.2,30.9,36.0,30.5,27.0,87,52,21,29.90,29.77,8,1,19,0.00
2013-6-5,68.5,51.4,32.5,35.0,25.9,13.0,86,46,12,29.89,29.76,16,2,23,0.00
2013-6-6,70.4,52.1,29.0,33.0,26.0,21.0,80,43,16,29.94,29.79,10,1,18,0.00
2013-6-7,65.6,49.9,35.7,37.0,32.3,28.0,84,55,25,29.91,29.71,11,1,17,0.00
2013-6-8,71.9,53.1,31.9,38.0,29.9,23.0,89,49,18,29.84,29.72,12,2,20,0.00
2013-6-9,77.7,56.4,33.1,34.0,28.7,22.0,81,43,13,29.91,29.77,9,2,16,0.00
2013-6-10,80.8,58.2,35.4,37.0,28.6,21.0,76,40,12,29.88,29.70,10,1,18,0.00
2013-6-11,75.7,57.3,36.8,34.0,23.9,14.0,69,34,10,29.88,29.69,11,2,24,0.00
2013-6-12,77.8,57.4,34.2,34.0,24.9,21.0,66,34,13,29.98,29.81,9,1,16,0.00
2013-6-13,74.0,57.2,39.8,36.0,28.9,21.0,60,37,17,29.93,29.73,11,1,18,0.00
2013-6-14,74.4,57.4,39.6,39.0,28.5,13.0,78,40,11,29.84,29.65,11,2,17,0.00
2013-6-15,70.6,51.3,30.9,33.0,24.4,15.0,62,39,15,29.98,29.78,14,2,23,0.00
2013-6-16,69.0,49.9,33.2,51.0,35.6,29.0,93,62,26,30.02,29.89,11,1,18,0.01
2013-6-17,72.5,53.3,34.9,43.0,32.3,18.0,93,55,13,30.04,29.89,11,1,18,0.00
2013-6-18,71.7,53.8,35.7,40.0,32.7,22.0,88,52,16,29.94,29.70,11,1,15,0.00
2013-6-19,75.1,54.2,31.2,31.0,19.0,5.0,71,35,7,29.80,29.61,15,2,19,0.00
2013-6-20,74.7,54.0,31.4,28.0,19.9,15.0,61,31,12,29.81,29.67,9,2,14,0.00
2013-6-21,74.0,52.8,32.0,29.0,22.5,17.0,66,36,12,29.84,29.68,10,1,15,0.00
2013-6-22,72.6,53.3,32.2,32.0,21.0,12.0,68,34,13,29.81,29.66,14,2,21,0.00
2013-6-23,72.7,52.9,31.2,31.0,23.6,18.0,65,37,15,29.85,29.65,6,1,13,0.00
2013-6-24,70.9,52.1,32.8,35.0,22.2,12.0,70,38,12,29.80,29.67,8,1,17,0.00
2013-6-25,71.6,55.0,35.8,32.0,25.8,20.0,61,36,19,29.92,29.78,13,2,18,0.00
2013-6-26,78.4,58.0,34.8,37.0,30.5,26.0,78,42,15,30.01,29.86,8,1,18,0.00
2013-6-27,83.9,61.3,38.5,38.0,31.6,20.0,75,40,10,30.04,29.87,10,1,25,0.00
2013-6-28,78.5,58.8,43.9,51.0,40.6,32.0,92,56,20,30.02,29.83,4,0,9,0.00
2013-6-29,74.0,54.4,40.2,52.0,43.3,39.0,95,70,30,30.03,29.87,8,0,13,0.11
2013-6-30,77.3,56.3,38.8,48.0,40.0,34.0,93,60,23,30.02,29.84,8,1,16,0.00
2013-7-1,76.3,56.2,36.3,42.0,35.4,25.0,93,54,16,30.04,29.86,7,1,15,0.00
2013-7-2,77.4,57.2,37.3,40.0,34.1,23.0,89,50,14,30.00,29.79,7,1,19,0.00
2013-7-3,74.7,54.3,36.4,41.0,35.4,28.0,88,55,19,29.90,29.73,7,1,21,0.00
2013-7-4,76.5,55.8,39.2,50.0,39.6,34.0,87,61,22,29.87,29.68,7,1,16,0.02
2013-7-5,75.1,64.4,47.4,45.0,42.2,38.0,89,48,28,29.78,29.58,7,2,20,0.00
2013-7-6,77.5,56.9,44.1,50.0,43.2,36.0,88,65,23,29.77,29.59,7,1,17,0.01
2013-7-7,77.2,59.8,47.4,50.0,44.6,38.0,95,65,26,29.84,29.67,8,1,14,0.11
2013-7-8,75.8,58.2,44.9,52.0,43.7,30.0,97,67,19,29.92,29.81,15,1,25,0.02
2013-7-9,80.0,60.6,39.9,44.0,35.8,26.0,86,48,15,30.03,29.86,10,1,11,0.00
2013-7-10,80.6,63.1,48.4,47.0,42.2,32.0,77,51,17,29.95,29.70,6,0,16,0.00
2013-7-11,82.7,61.1,42.9,46.0,41.0,33.0,85,54,18,29.85,29.64,10,1,12,0.00
2013-7-12,71.6,57.4,44.9,51.0,45.7,41.0,87,67,39,29.86,29.69,4,0,13,0.01
2013-7-13,72.6,58.7,43.9,50.0,45.9,42.0,92,66,38,29.94,29.83,6,1,18,0.00
2013-7-14,74.8,57.7,44.1,58.0,46.8,41.0,88,69,30,29.93,29.73,6,1,11,0.06
2013-7-15,69.6,52.9,40.9,51.0,45.6,39.0,96,78,46,29.91,29.78,3,1,12,0.00
2013-7-16,76.0,66.0,48.6,44.0,39.3,32.0,77,41,21,29.98,29.82,6,1,11,0.00
2013-7-17,79.4,58.2,40.1,50.0,43.4,37.0,89,62,30,30.02,29.81,6,1,12,0.00
2013-7-18,77.7,53.8,41.7,55.0,46.6,39.0,96,80,30,30.03,29.78,7,1,12,0.21
2013-7-19,68.8,53.0,41.4,58.0,48.1,41.0,98,86,47,30.02,29.91,3,0,8,0.10
2013-7-20,78.3,57.3,39.7,55.0,43.7,30.0,98,68,19,29.98,29.72,9,1,14,0.00
2013-7-21,75.2,58.7,44.2,51.0,42.4,30.0,91,61,20,29.82,29.67,6,1,11,0.00
2013-7-22,79.4,59.6,40.2,45.0,38.4,25.0,90,54,16,29.88,29.73,9,1,15,0.00
2013-7-23,81.4,58.9,40.4,45.0,36.4,25.0,86,51,13,29.90,29.75,7,1,11,0.00
2013-7-24,67.4,55.5,45.5,51.0,42.9,38.0,84,65,40,29.99,29.83,3,0,15,0.05
2013-7-25,69.9,57.2,46.0,53.0,46.1,36.0,96,71,30,29.93,29.86,6,1,11,0.08
2013-7-30,69.6,53.3,37.1,51.0,42.1,36.0,97,71,32,30.18,30.09,7,1,12,0.01
2013-7-31,75.0,55.7,36.5,44.0,37.1,29.0,94,59,19,30.23,29.99,8,1,15,0.00
2013-8-1,60.9,49.7,41.4,51.0,43.4,37.0,94,80,50,30.03,29.92,4,0,5,0.11
2013-8-2,73.6,58.1,47.2,54.0,44.9,30.0,96,68,21,29.94,29.79,11,1,15,0.01
2013-8-3,73.9,54.1,44.0,54.0,46.4,41.0,96,78,33,30.03,29.80,4,0,13,0.38
2013-8-4,74.2,55.9,39.3,52.0,43.9,39.0,97,70,29,30.09,29.94,8,1,13,0.01
2013-8-5,69.4,56.9,44.3,52.0,46.6,42.0,94,71,42,29.97,29.80,6,1,12,0.01
2013-8-6,71.0,52.1,42.5,50.0,46.3,41.0,96,83,39,29.94,29.77,6,0,13,0.15
2013-8-7,56.4,48.7,42.7,51.0,46.7,41.0,97,93,69,29.97,29.89,4,0,7,0.24
2013-8-8,64.8,49.3,41.2,50.0,44.3,40.0,97,85,49,30.04,29.89,7,1,14,0.22
2013-8-9,64.6,50.9,36.7,47.0,41.1,36.0,97,73,40,30.10,29.98,11,2,15,0.01
2013-8-10,68.6,51.7,36.9,46.0,38.5,29.0,95,67,23,30.14,29.98,10,2,16,0.00
2013-8-11,69.0,51.7,36.1,44.0,37.8,30.0,95,65,24,30.14,29.96,13,2,17,0.00
2013-8-12,67.2,51.6,39.3,48.0,40.2,33.0,93,70,28,30.06,29.91,13,2,16,0.03
2013-8-13,67.9,51.3,34.4,49.0,37.4,30.0,96,65,24,30.11,30.01,12,2,17,0.01
2013-8-14,69.8,51.6,34.7,43.0,34.6,27.0,93,59,21,30.11,29.97,8,1,18,0.00
2013-8-15,72.8,52.7,33.6,41.0,33.4,27.0,90,56,19,30.12,29.99,12,1,21,0.00
2013-8-16,75.3,55.2,35.5,42.0,33.3,26.0,88,51,17,30.12,29.94,10,2,17,0.00
2013-8-17,76.6,57.2,41.3,43.0,35.6,26.0,79,51,17,30.05,29.84,8,1,12,0.00
2013-8-18,73.9,53.4,38.8,51.0,42.4,35.0,95,71,25,30.05,29.87,18,2,19,0.06
2013-8-19,75.6,54.0,37.6,55.0,45.6,37.0,97,77,26,30.07,29.91,9,1,19,0.09
2013-8-20,74.9,57.0,41.0,49.0,43.2,36.0,95,65,24,29.99,29.82,7,1,12,0.00
2013-8-21,75.6,52.9,40.4,52.0,45.6,38.0,94,79,33,30.04,29.84,8,1,14,0.14
2013-8-22,73.9,56.5,43.2,51.0,46.0,42.0,97,72,33,30.08,29.87,7,1,15,0.00
2013-8-23,70.6,54.5,43.2,51.0,44.9,38.0,93,73,31,29.94,29.73,6,1,10,0.00
2013-8-24,67.1,52.5,41.6,50.0,44.0,39.0,96,76,40,30.02,29.87,8,1,12,0.02
2013-8-25,64.4,54.7,43.7,55.0,49.1,43.0,97,83,54,30.06,29.93,5,0,12,0.08
2013-8-26,72.4,58.1,46.7,52.0,48.8,44.0,97,75,37,30.05,29.87,10,1,15,0.02
2013-8-27,77.8,57.6,42.5,54.0,44.5,30.0,96,68,18,29.98,29.80,5,1,8,0.00
2013-8-28,75.4,57.2,41.4,52.0,44.3,40.0,95,67,30,29.97,29.83,12,1,14,0.00
2013-8-29,79.4,58.1,40.3,53.0,43.5,36.0,96,66,22,30.03,29.87,9,2,12,0.23
2013-8-30,74.8,59.7,48.3,55.0,48.6,40.0,97,71,30,30.00,29.82,9,1,13,0.01
2013-8-31,75.2,56.0,42.3,54.0,47.3,41.0,96,77,32,29.92,29.77,11,1,12,0.19
2013-9-1,75.1,56.3,44.2,55.0,47.8,39.0,97,78,28,29.96,29.82,12,1,17,0.04
2013-9-2,74.7,59.7,46.4,50.0,45.5,39.0,94,65,29,29.97,29.80,14,2,17,0.00
2013-9-3,78.2,58.9,42.5,49.0,44.5,40.0,93,64,28,29.95,29.81,12,2,14,0.00
2013-9-4,75.7,57.9,44.9,52.0,46.1,42.0,91,68,34,30.01,29.89,11,1,12,0.00
2013-9-5,79.8,59.0,42.0,49.0,40.5,29.0,93,59,16,30.08,29.89,8,1,14,0.00
2013-9-6,76.9,55.9,41.5,58.0,45.1,38.0,91,70,29,30.02,29.81,9,1,14,0.06
2013-9-7,75.5,56.7,40.8,53.0,42.8,35.0,91,65,24,30.00,29.79,7,1,11,0.02
2013-9-8,72.4,56.3,43.2,46.0,42.3,38.0,89,64,30,29.90,29.65,10,1,17,0.00
2013-9-9,67.4,52.6,39.3,49.0,44.6,38.0,95,77,40,29.80,29.67,6,1,13,0.01
2013-9-10,64.4,53.3,46.9,52.0,47.2,41.0,96,82,44,29.89,29.77,3,0,10,0.22
2013-9-11,66.6,52.7,44.4,52.0,47.3,42.0,97,84,47,29.95,29.84,3,0,17,0.03
2013-9-12,67.5,52.1,42.1,51.0,46.0,41.0,97,82,43,30.01,29.82,6,1,13,0.16
2013-9-13,61.1,51.2,43.3,50.0,45.1,40.0,97,82,46,29.87,29.71,5,1,12,0.26
2013-9-14,61.9,48.4,40.7,50.0,44.7,40.0,97,88,49,29.91,29.73,10,1,18,0.32
2013-9-15,60.2,46.5,40.0,49.0,43.8,39.0,97,91,55,30.09,29.89,7,0,9,0.22
2013-9-16,62.3,46.1,37.3,52.0,42.9,37.0,98,89,54,30.14,29.97,7,1,10,0.19
2013-9-17,65.5,49.2,35.8,48.0,40.0,35.0,97,76,33,30.09,29.79,9,1,15,0.00
2013-9-18,62.2,48.2,39.2,51.0,43.8,38.0,97,87,46,29.89,29.69,16,1,19,0.49
2013-9-19,61.1,45.9,32.0,47.0,36.4,28.0,98,75,30,30.04,29.84,11,2,18,0.01
2013-9-20,64.7,43.8,28.1,36.0,28.9,15.0,94,64,15,30.14,30.00,11,2,17,0.00
2013-9-21,65.0,47.4,31.1,40.0,34.6,29.0,94,67,31,30.09,29.80,17,2,22,0.00
2013-9-22,57.1,41.6,33.5,48.0,38.3,32.0,96,88,61,29.81,29.52,13,1,18,0.87
2013-9-23,48.9,38.4,28.6,35.0,32.1,27.0,96,80,49,30.21,29.59,11,3,16,0.33
2013-9-24,62.0,40.9,25.5,34.0,27.1,17.0,96,68,18,30.30,30.02,8,1,13,0.01
2013-9-25,63.6,44.5,28.3,37.0,28.2,23.0,92,61,22,30.01,29.57,15,3,25,0.00
2013-9-26,63.1,44.8,29.4,31.0,24.6,14.0,85,54,15,29.72,29.56,16,3,26,0.00
2013-9-27,42.9,34.7,28.1,38.0,30.8,24.0,93,86,65,30.09,29.60,10,2,13,0.17
2013-9-28,50.7,32.4,17.2,34.0,24.4,15.0,92,76,33,30.38,30.09,9,2,15,0.01
2013-9-29,57.7,38.0,22.8,29.0,23.7,17.0,95,65,22,30.36,30.11,11,2,18,0.01
2013-9-30,63.9,42.7,26.9,35.0,27.4,21.0,90,62,24,30.19,29.90,13,2,20,0.00
2013-10-1,66.6,43.3,27.6,33.0,27.0,18.0,90,61,16,30.08,29.87,9,2,11,0.00
2013-10-2,60.7,41.2,25.9,29.0,23.2,13.0,86,58,15,30.03,29.84,9,1,15,0.00
2013-10-3,59.9,43.2,26.6,32.0,25.0,21.0,87,55,23,29.92,29.59,13,2,19,0.00
2013-10-4,41.6,27.4,16.3,32.0,19.3,10.0,91,73,39,30.30,29.59,9,3,17,0.00
2013-10-5,48.0,27.4,15.0,21.0,13.4,-1.0,92,64,13,30.53,30.31,9,1,24,0.01
2013-10-6,56.0,32.5,15.9,28.0,19.0,13.0,88,63,25,30.58,30.38,11,2,16,0.00
2013-10-7,64.3,39.6,22.7,30.0,21.6,7.0,93,60,11,30.45,30.09,8,1,14,0.00
2013-10-8,59.6,40.6,26.7,30.0,24.3,17.0,89,60,20,30.11,29.75,11,2,16,0.00
2013-10-9,57.8,41.1,27.8,30.0,24.0,15.0,88,57,21,29.89,29.76,4,1,17,0.00
2013-10-10,45.3,36.5,29.1,33.0,28.7,24.0,93,75,45,29.88,29.49,12,1,18,0.00
2013-10-11,38.0,32.3,28.5,33.0,29.1,26.0,95,88,75,30.15,29.75,11,2,15,0.08
2013-10-12,47.7,32.2,20.0,30.0,24.6,18.0,94,77,40,30.27,30.10,9,1,12,0.12
2013-10-13,55.1,39.1,24.8,34.0,28.3,23.0,92,69,35,30.25,29.89,12,1,17,0.00
2013-10-14,36.1,31.1,27.3,31.0,27.8,25.0,94,87,74,30.17,29.81,14,2,22,0.00
2013-10-15,38.6,30.5,20.9,28.0,23.2,17.0,93,77,44,30.23,30.07,6,1,13,0.03
2013-10-16,38.3,29.6,20.6,27.0,22.1,16.0,92,75,46,30.24,30.08,11,1,18,0.00
2013-10-17,42.6,26.7,13.6,20.0,15.5,11.0,89,67,31,30.32,30.11,13,2,17,0.01
2013-10-18,38.3,27.7,19.7,24.0,14.3,4.0,92,62,25,30.35,30.09,11,2,21,0.00
2013-10-19,46.9,27.4,12.5,20.0,14.5,9.0,89,63,29,30.41,30.24,14,2,19,0.00
2013-10-20,47.4,30.6,17.0,21.0,17.8,14.0,89,64,31,30.25,29.99,12,2,21,0.00
2013-10-21,47.3,30.7,18.9,21.0,16.9,9.0,91,63,22,30.34,30.14,13,2,18,0.00
2013-10-22,53.2,31.8,17.8,24.0,19.7,15.0,90,67,27,30.45,30.27,9,2,15,0.00
2013-10-23,55.7,33.8,19.4,26.0,19.6,14.0,91,64,19,30.39,30.19,11,1,14,0.00
2013-10-24,55.9,36.2,22.5,26.0,20.1,14.0,86,59,19,30.34,30.18,8,1,18,0.00
2013-10-25,45.4,31.1,23.5,35.0,24.4,20.0,95,78,42,30.33,30.21,7,1,14,0.01
2013-10-26,31.1,27.4,23.4,30.0,26.0,22.0,95,94,93,30.44,30.32,1,0,2,0.00
2013-10-27,50.8,36.2,27.3,26.0,22.7,20.0,81,62,32,30.03,29.96,9,1,19,0.00
2013-10-28,49.0,35.1,26.0,29.0,21.4,15.0,91,63,26,30.01,29.81,12,2,25,0.00
2013-10-29,43.2,32.9,23.5,29.0,21.4,14.0,92,65,32,29.93,29.82,15,3,24,0.00
2013-10-30,33.5,24.8,15.9,26.0,19.2,14.0,93,80,50,30.04,29.89,9,1,16,0.03
2013-10-31,31.5,24.2,16.7,22.0,18.3,14.0,91,79,58,30.23,30.04,9,2,18,0.00
2013-11-1,40.8,27.5,16.2,26.0,18.4,13.0,94,72,38,30.46,30.22,14,2,18,0.01
2013-11-2,52.6,27.3,10.7,17.0,11.3,1.0,87,60,13,30.53,30.17,7,1,14,0.00
2013-11-3,47.3,32.1,17.8,25.0,17.5,12.0,86,59,33,30.17,29.71,16,3,23,0.00
2013-11-4,37.6,28.4,18.0,26.0,18.3,11.0,92,69,35,29.94,29.82,7,1,11,0.00
2013-11-5,27.8,19.3,0.2,26.0,13.5,-4.0,91,79,41,30.50,29.87,16,2,18,0.00
2013-11-6,32.0,13.7,-3.2,18.0,6.6,-7.0,88,75,50,30.91,30.51,14,2,18,0.00
2013-11-7,45.8,22.8,7.2,24.0,14.6,4.0,90,75,31,30.91,30.47,8,1,15,0.07
2013-11-8,49.0,28.9,13.5,21.0,15.8,11.0,91,65,26,30.46,30.16,10,2,19,0.01
2013-11-9,49.1,28.7,16.4,23.0,17.5,14.0,90,68,27,30.45,30.27,13,1,14,0.00
2013-11-10,50.0,28.5,15.5,22.0,16.6,13.0,89,67,25,30.54,30.36,9,1,16,0.00
2013-11-11,48.3,28.0,15.1,22.0,17.0,13.0,90,68,28,30.66,30.45,9,1,13,0.00
2013-11-12,50.1,28.0,15.9,23.0,16.3,12.0,91,67,22,30.76,30.58,10,1,14,0.00
2013-11-13,46.9,28.4,14.3,21.0,16.0,11.0,89,64,28,30.66,30.26,10,1,13,0.00
2013-11-14,44.6,28.6,18.8,24.0,18.4,14.0,86,68,34,30.25,29.98,10,1,14,0.00
2013-11-15,41.0,28.3,15.1,28.0,20.1,12.0,94,75,35,29.97,29.65,15,3,22,0.00
2013-11-16,32.5,27.9,25.3,27.0,24.0,20.0,94,86,63,29.66,29.53,18,4,29,0.00
2013-11-17,35.0,25.1,7.8,25.0,18.8,5.0,93,78,55,30.37,29.65,13,3,24,0.02
2013-11-18,34.5,15.7,0.2,24.0,11.4,-3.0,92,84,62,30.65,30.38,8,1,11,0.00
2013-11-19,39.3,22.4,6.0,28.0,17.7,3.0,92,83,56,30.57,30.16,9,1,12,0.03
2013-11-20,40.9,30.8,25.0,29.0,26.0,23.0,94,84,52,30.16,29.84,6,1,10,0.04
2013-11-21,34.8,30.1,26.9,31.0,27.8,25.0,95,91,79,30.22,29.89,5,0,7,0.01
2013-11-22,34.3,28.8,25.1,29.0,24.9,22.0,94,85,73,30.38,30.21,2,0,5,0.00
2013-11-23,33.7,27.0,17.7,28.0,22.8,15.0,94,85,68,30.46,30.28,2,0,6,0.00
2013-11-24,30.0,25.0,16.4,26.0,22.4,14.0,94,89,78,30.27,30.02,3,0,6,0.00
2013-11-25,30.6,22.5,7.8,25.0,19.5,5.0,93,88,76,30.52,30.06,0,0,0,0.00
2013-11-26,28.6,11.4,-1.3,21.0,7.7,-5.0,92,85,71,30.84,30.52,0,0,0,0.00
2013-11-27,29.4,12.7,-0.9,22.0,8.8,-4.0,92,85,67,30.86,30.59,3,0,6,0.00
2013-11-28,48.0,19.8,6.9,30.0,14.7,4.0,92,82,45,30.65,30.40,2,0,6,0.27
2013-11-29,37.7,16.9,3.6,21.0,11.1,1.0,91,80,49,30.69,30.50,6,0,10,0.04
2013-11-30,34.2,15.0,0.8,21.0,9.3,-2.0,91,80,52,30.76,30.55,5,1,12,0.01
2013-12-1,34.6,17.5,-0.4,21.0,10.8,-4.0,91,77,52,30.75,30.49,10,1,13,0.00
2013-12-2,40.0,32.8,24.9,24.0,20.8,15.0,84,63,43,30.49,29.75,16,2,23,0.00
2013-12-3,33.7,30.4,27.7,28.0,22.2,16.0,94,74,48,29.75,29.41,8,1,15,0.00
2013-12-4,28.2,16.7,-6.1,27.0,14.4,-10.0,94,90,84,30.05,29.31,12,2,17,0.00
2013-12-5,10.2,-6.2,-23.4,6.0,-10.2,-28.0,87,82,75,30.51,30.05,3,0,8,0.00
2013-12-6,11.0,-2.1,-9.6,4.0,-7.0,-13.0,86,80,58,30.65,30.46,8,1,12,0.00
2013-12-7,18.6,7.8,-7.7,11.0,3.5,-12.0,89,83,63,30.64,30.00,7,0,11,0.00
2013-12-8,13.2,3.0,-19.0,10.0,-1.4,-23.0,89,81,69,30.37,29.89,11,2,18,0.00
2013-12-9,6.8,-12.2,-24.3,-2.0,-17.8,-29.0,84,76,64,31.24,30.38,11,1,13,0.00
2013-12-10,12.7,-8.6,-25.8,4.0,-13.9,-31.0,85,78,61,31.32,31.07,4,0,7,0.01
2013-12-11,29.8,2.7,-8.9,15.0,-2.3,-13.0,89,80,55,31.16,30.98,4,0,8,0.00
2013-12-12,31.6,2.8,-11.0,17.0,-2.4,-15.0,90,80,50,31.19,30.76,5,1,8,0.02
2013-12-13,25.7,6.2,-8.6,14.0,1.1,-13.0,91,80,58,30.75,30.46,9,1,16,0.00
2013-12-14,24.5,3.4,-11.1,12.0,-1.8,-15.0,91,80,56,31.00,30.66,7,1,12,0.00
2013-12-15,32.3,9.1,-6.8,19.0,4.0,-11.0,90,80,55,31.02,30.85,6,1,13,0.01
2013-12-16,38.5,12.2,-1.9,25.0,7.0,-6.0,92,81,48,30.94,30.75,7,1,12,0.04
2013-12-17,41.4,12.7,-1.9,24.0,7.6,-5.0,93,81,46,31.01,30.78,3,0,4,0.05
2013-12-18,32.9,14.3,1.2,20.0,9.5,-2.0,92,82,53,30.80,30.27,4,0,6,0.01
2013-12-19,39.9,28.9,14.7,24.0,18.6,12.0,91,69,38,30.26,29.82,11,2,17,0.01
2013-12-20,28.5,20.3,10.7,23.0,17.5,8.0,92,89,79,29.85,29.70,6,1,12,0.00
2013-12-21,20.8,12.8,-1.5,16.0,9.3,-5.0,89,85,78,30.15,29.76,8,1,15,0.00
2013-12-22,23.9,4.0,-15.5,13.0,-1.3,-20.0,88,79,62,30.75,30.16,9,2,14,0.00
2013-12-23,25.9,10.3,-3.6,16.0,5.5,-8.0,92,81,63,30.84,30.71,7,1,14,0.00
2013-12-24,30.3,13.6,-7.1,25.0,9.7,-11.0,90,84,63,30.81,30.46,13,1,16,0.00
2013-12-25,27.0,0.9,-14.0,14.0,-7.2,-18.0,91,73,33,31.14,30.73,7,1,13,0.00
2013-12-26,26.1,3.1,-11.4,12.0,-3.2,-15.0,89,77,44,31.14,30.93,8,1,12,0.00
2013-12-27,36.1,8.8,-5.2,18.0,3.3,-9.0,91,80,46,31.07,30.76,6,1,7,0.02
2013-12-28,29.4,13.5,-2.4,19.0,8.6,-6.0,91,81,63,30.75,30.32,5,1,9,0.00
2013-12-29,26.6,13.6,-3.4,18.0,8.8,-7.0,92,82,57,30.51,30.27,9,1,13,0.00
2013-12-30,29.8,6.2,-6.5,14.0,-0.1,-10.0,91,77,45,30.86,30.49,7,1,16,0.00
2013-12-31,35.2,15.4,-3.4,21.0,9.3,-7.0,89,78,55,30.84,30.46,9,2,15,0.00
2014-1-1,29.6,20.7,-0.8,23.0,12.7,-4.0,91,73,45,30.57,30.25,17,3,22,0.00
2014-1-2,33.5,16.9,-2.4,11.0,4.6,-6.0,91,63,29,30.86,30.72,11,2,13,0.00